Regional Weather Roundup
Issued by NWS

Home | Current Version | Previous Version | Text Only | Print | Product List | Glossary On
Versions: 1 2 3 4 5 6 7 8 9 10 11 12 13 14 15 16 17 18 19 20 21 22 23 24 25 26 27 28 29 30 31 32 33 34 35 36 37 38 39 40 41 42 43 44 45 46 47 48 49 50
000
ASUS43 KLMK 260402
RWRKY
KENTUCKY REGIONAL WEATHER ROUNDUP
NATIONAL WEATHER SERVICE LOUISVILLE KY
1200 AM EDT FRI MAY 26 2017

NOTE "FAIR" INDICATES FEW OR NO CLOUDS BELOW 12,000 FEET
WITH NO SIGNIFICANT WEATHER AND/OR OBSTRUCTIONS TO VISIBILITY.

KYZ001>023-026-027-061>063-070>075-260500-
WESTERN AND SOUTH CENTRAL KENTUCKY

CITY           SKY/WX    TMP DP  RH WIND       PRES   REMARKS
PADUCAH        CLEAR     64  49  57 S3        29.82R
HENDERSON      CLEAR     59  55  87 SW3       29.82R
OWENSBORO      CLEAR     60  55  83 S3        29.83R
HOPKINSVILLE   CLEAR     61  53  75 SW3       29.85R
BOWLING GREEN  CLEAR     62  54  74 SW5       29.86R
GLASGOW        NOT AVBL
$$

KYZ024-025-028>034-038-045-046-053-260500-
NORTH CENTRAL KENTUCKY

CITY           SKY/WX    TMP DP  RH WIND       PRES   REMARKS
LOUISVILLE/SDF PTCLDY    61  57  87 CALM      29.81R
LOUISVILLE/LOU PTCLDY    58  57  97 CALM      29.82R
FORT KNOX      CLEAR     58  55  89 SW3       29.81R
$$

KYZ035>037-039>044-047>052-055>060-089>105-260500-
NORTHEAST KENTUCKY

CITY           SKY/WX    TMP DP  RH WIND       PRES   REMARKS
LEXINGTON      MOCLDY    60  53  77 W7        29.83R
COVINGTON      MOCLDY    60  56  86 SW5       29.78R
FRANKFORT      CLEAR     56  52  86 SW5       29.81R
$$

KYZ054-064>069-076>088-106>120-260500-
SOUTHEAST KENTUCKY

CITY           SKY/WX    TMP DP  RH WIND       PRES   REMARKS
JACKSON        CLOUDY    58  57  97 VRB3      29.83R FOG
LONDON         CLEAR     59  54  83 SW5       29.86R
SOMERSET       NOT AVBL
MIDDLESBORO    CLEAR     61  54  76 W5        29.87R
MONTICELLO     CLEAR     53  53 100 VRB3      29.89R
$$





USA.gov is the U.S. government's official web portal to all federal, state and local government web resources and services.